EA1IDU Weather Reports


Display with metric or nautical units.
time (UTC)temp
F
wind
direction
speed
MPH
gust
MPH
rain 1hr
in
rain 24hr
in
rain mn
in
humidity
%
barometer
mb
20260904221532 0 270 8.0 13.0 0.00 0.00 0.00 1 1026.5
20260904220527 0 270 6.0 11.0 0.00 0.00 0.00 1 1026.6
20260904215522 0 270 5.0 8.0 0.00 0.00 0.00 1 1026.5
20260904214516 0 270 6.0 8.0 0.00 0.00 0.00 1 1026.5
20260904213611 0 270 4.0 7.0 0.00 0.00 0.00 1 1026.6
20260904212606 0 270 3.0 8.0 0.00 0.00 0.00 1 1026.6
20260904211601 0 270 5.0 9.0 0.00 0.00 0.00 1 1026.6
20260904210557 0 270 5.0 11.0 0.00 0.00 0.00 1 1026.6
20260904205551 0 270 4.0 13.0 0.00 0.00 0.00 1 1026.4
20260904204545 0 270 5.0 11.0 0.00 0.00 0.00 1 1026.4
20260904203541 0 270 4.0 9.0 0.00 0.00 0.00 1 1026.2
20260904202535 0 270 5.0 11.0 0.00 0.00 0.00 1 1026.1
20260904201551 0 270 1.0 4.0 0.00 0.00 0.00 1 1025.8
20260904200524 0 270 1.0 4.0 0.00 0.00 0.00 1 1025.8
20260904195519 0 282 2.0 4.0 0.00 0.00 0.00 1 1025.7
20260904194634 0 270 1.0 2.0 0.00 0.00 0.00 1 1025.7
20260904193609 0 0.0 0.0 0.00 0.00 0.00 1 1025.6
20260904192604 0 0.0 0.0 0.00 0.00 0.00 1 1025.4
20260904191620 0 0.0 0.0 0.00 0.00 0.00 1 1025.2
20260904190614 0 0.0 0.0 0.00 0.00 0.00 1 1025.1
20260904185548 0 0.0 0.0 0.00 0.00 0.00 1 1025.2
20260904184543 0 0.0 0.0 0.00 0.00 0.00 1 1025.0
20260904183538 0 256 1.0 2.0 0.00 0.00 0.00 1 1025.1
20260904182532 0 270 1.0 2.0 0.00 0.00 0.00 1 1025.1
20260904181608 0 270 0.0 2.0 0.00 0.00 0.00 1 1024.9
20260904180522 0 293 2.0 4.0 0.00 0.00 0.00 1 1024.9
20260904175517 0 263 4.0 7.0 0.00 0.00 0.00 1 1024.9
20260904174612 0 254 3.0 7.0 0.00 0.00 0.00 1 1025.0
20260904173627 0 256 3.0 6.0 0.00 0.00 0.00 1 1024.9
20260904172602 0 279 3.0 7.0 0.00 0.00 0.00 1 1024.8
20260904171557 0 248 5.0 8.0 0.00 0.00 0.00 1 1025.0
20260904170613 0 252 5.0 9.0 0.00 0.00 0.00 1 1024.8
20260904165627 0 247 7.0 13.0 0.00 0.00 0.00 1 1024.9
20260904164542 0 268 5.0 13.0 0.00 0.00 0.00 1 1024.8
20260904163618 0 258 6.0 11.0 0.00 0.00 0.00 1 1025.0
20260904162531 0 262 7.0 13.0 0.00 0.00 0.00 1 1025.0
20260904161526 0 268 5.0 11.0 0.00 0.00 0.00 1 1024.9
20260904160521 0 259 8.0 13.0 0.00 0.00 0.00 1 1024.9
20260904155516 0 247 4.0 9.0 0.00 0.00 0.00 1 1025.0
20260904154631 0 233 8.0 13.0 0.00 0.00 0.00 1 1025.0
20260904153606 0 255 7.0 11.0 0.00 0.00 0.00 1 1024.9
20260904152600 0 238 7.0 15.0 0.00 0.00 0.00 1 1025.0
20260904151555 0 246 7.0 13.0 0.00 0.00 0.00 1 1025.2
20260904150550 0 247 7.0 11.0 0.00 0.00 0.00 1 1025.0
20260904145545 0 264 6.0 14.0 0.00 0.00 0.00 1 1025.2
20260904144540 0 255 5.0 11.0 0.00 0.00 0.00 1 1025.3
20260904143555 0 248 7.0 16.0 0.00 0.00 0.00 1 1025.2
20260904142529 0 248 7.0 16.0 0.00 0.00 0.00 1 1025.2
20260904141524 0 237 8.0 15.0 0.00 0.00 0.00 1 1025.4
20260904140518 0 245 6.0 14.0 0.00 0.00 0.00 1 1025.5
20260904135613 0 278 5.0 11.0 0.00 0.00 0.00 1 1025.6
20260904134608 0 249 5.0 9.0 0.00 0.00 0.00 1 1025.8
20260904133603 0 233 6.0 11.0 0.00 0.00 0.00 1 1025.8
20260904132558 0 258 5.0 11.0 0.00 0.00 0.00 1 1025.9
20260904131613 0 278 3.0 7.0 0.00 0.00 0.00 1 1026.0
20260904130547 0 256 3.0 6.0 0.00 0.00 0.00 1 1025.9
20260904125542 0 231 6.0 11.0 0.00 0.00 0.00 1 1026.0
20260904124537 0 279 3.0 8.0 0.00 0.00 0.00 1 1026.0
20260904123531 0 235 6.0 11.0 0.00 0.00 0.00 1 1026.0
20260904122526 0 257 4.0 8.0 0.00 0.00 0.00 1 1026.0
20260904121522 0 266 4.0 8.0 0.00 0.00 0.00 1 1026.3
20260904120516 0 248 4.0 7.0 0.00 0.00 0.00 1 1026.4
20260904115611 0 286 5.0 9.0 0.00 0.00 0.00 1 1026.4
20260904114706 0 250 6.0 11.0 0.00 0.00 0.00 1 1026.7
20260904113641 0 245 4.0 9.0 0.00 0.00 0.00 1 1026.7
20260904112556 0 252 3.0 7.0 0.00 0.00 0.00 1 1026.6
20260904111611 0 271 2.0 4.0 0.00 0.00 0.00 1 1026.8
20260904110546 0 238 4.0 7.0 0.00 0.00 0.00 1 1026.9
20260904105540 0 255 4.0 7.0 0.00 0.00 0.00 1 1026.9
20260904104536 0 248 3.0 7.0 0.00 0.00 0.00 1 1027.0
20260904103530 0 253 3.0 7.0 0.00 0.00 0.00 1 1027.1
20260904102525 0 258 3.0 6.0 0.00 0.00 0.00 1 1027.3
20260904101521 0 267 4.0 7.0 0.00 0.00 0.00 1 1027.4
20260904100635 0 263 4.0 7.0 0.00 0.00 0.00 1 1027.4
20260904095609 0 254 3.0 7.0 0.00 0.00 0.00 1 1027.6
20260904094604 0 265 3.0 4.0 0.00 0.00 0.00 1 1027.6
20260904093559 0 266 2.0 4.0 0.00 0.00 0.00 1 1027.5
20260904092636 0 270 2.0 2.0 0.00 0.00 0.00 1 1027.4
20260904091549 0 270 2.0 4.0 0.00 0.00 0.00 1 1027.4
20260904090604 0 270 3.0 4.0 0.00 0.00 0.00 1 1027.2
20260904085538 0 270 1.0 4.0 0.00 0.00 0.00 1 1027.1
20260904084533 0 270 0.0 2.0 0.00 0.00 0.00 1 1026.9
20260904083530 0 0.0 2.0 0.00 0.00 0.00 1 1026.7
20260904082543 0 270 0.0 2.0 0.00 0.00 0.00 1 1026.8
20260904081539 0 0.0 2.0 0.00 0.00 0.00 1 1026.8
20260904080613 0 270 0.0 2.0 0.00 0.00 0.00 1 1026.5
20260904075608 0 0.0 0.0 0.00 0.00 0.00 1 1026.4
20260904074602 0 270 0.0 2.0 0.00 0.00 0.00 1 1026.6
20260904073557 0 270 0.0 2.0 0.00 0.00 0.00 1 1026.5
20260904072614 0 270 0.0 2.0 0.00 0.00 0.00 1 1026.6
20260904071547 0 270 0.0 2.0 0.00 0.00 0.00 1 1026.5
20260904070542 0 270 0.0 2.0 0.00 0.00 0.00 1 1026.6
20260904065538 0 0.0 0.0 0.00 0.00 0.00 1 1026.5
20260904064613 0 0.0 0.0 0.00 0.00 0.00 1 1026.5
20260904063526 0 0.0 0.0 0.00 0.00 0.00 1 1026.5
20260904062521 0 0.0 2.0 0.00 0.00 0.00 1 1026.3
20260904061517 0 0.0 2.0 0.00 0.00 0.00 1 1026.2
20260904060611 0 0.0 0.0 0.00 0.00 0.00 1 1026.3
20260904055606 0 0.0 0.0 0.00 0.00 0.00 1 1026.3
20260904054621 0 0.0 0.0 0.00 0.00 0.00 1 1026.3
20260904053556 0 0.0 0.0 0.00 0.00 0.00 1 1026.3
20260904052551 0 270 0.0 2.0 0.00 0.00 0.00 1 1026.2
20260904051546 0 270 2.0 4.0 0.00 0.00 0.00 1 1026.2
20260904050540 0 270 1.0 2.0 0.00 0.00 0.00 1 1026.0
20260904045535 0 0.0 0.0 0.00 0.00 0.00 1 1026.1
20260904044529 0 270 0.0 2.0 0.00 0.00 0.00 1 1026.2
20260904043524 0 270 0.0 2.0 0.00 0.00 0.00 1 1026.3
20260904042519 0 270 0.0 2.0 0.00 0.00 0.00 1 1026.3
20260904041614 0 270 1.0 2.0 0.00 0.00 0.00 1 1026.2
20260904040609 0 0.0 0.0 0.00 0.00 0.00 1 1026.1
20260904035624 0 0.0 0.0 0.00 0.00 0.00 1 1026.1
20260904034559 0 0.0 0.0 0.00 0.00 0.00 1 1026.2
20260904033553 0 0.0 0.0 0.00 0.00 0.00 1 1026.1
20260904032548 0 0.0 0.0 0.00 0.00 0.00 1 1026.0
20260904031604 0 0.0 0.0 0.00 0.00 0.00 1 1026.0
20260904030619 0 0.0 0.0 0.00 0.00 0.00 1 1026.0
20260904025532 0 0.0 0.0 0.00 0.00 0.00 1 1026.1
20260904024527 0 0.0 0.0 0.00 0.00 0.00 1 1026.2
20260904023522 0 0.0 0.0 0.00 0.00 0.00 1 1026.1
20260904022516 0 0.0 0.0 0.00 0.00 0.00 1 1026.3
20260904021611 0 0.0 2.0 0.00 0.00 0.00 1 1026.2
20260904020606 0 0.0 0.0 0.00 0.00 0.00 1 1026.3
20260904015622 0 0.0 2.0 0.00 0.00 0.00 1 1026.4
20260904014556 0 0.0 0.0 0.00 0.00 0.00 1 1026.5
20260904013551 0 0.0 0.0 0.00 0.00 0.00 1 1026.5
20260904012547 0 270 0.0 2.0 0.00 0.00 0.00 1 1026.7
20260904011622 0 270 0.0 2.0 0.00 0.00 0.00 1 1026.7
20260904010537 0 0.0 0.0 0.00 0.00 0.00 1 1026.9
20260904005530 0 270 0.0 2.0 0.00 0.00 0.00 1 1026.8
20260904004545 0 270 1.0 2.0 0.00 0.00 0.00 1 1026.9
20260904003520 0 270 0.0 2.0 0.00 0.00 0.00 1 1027.0
20260904002614 0 270 1.0 2.0 0.00 0.00 0.00 1 1026.9
20260904001610 0 270 1.0 2.0 0.00 0.00 0.00 1 1026.9
20260904000605 0 0.0 0.0 0.00 0.00 0.00 1 1027.0
20260903235559 0 270 0.0 2.0 0.00 0.00 0.00 1 1026.9
20260903234554 0 270 1.0 4.0 0.00 0.00 0.00 1 1027.0
20260903233549 0 270 1.0 4.0 0.00 0.00 0.00 1 1027.1
20260903232544 0 270 1.0 2.0 0.00 0.00 0.00 1 1027.1
20260903231538 0 270 1.0 2.0 0.00 0.00 0.00 1 1027.1
20260903230533 0 270 1.0 2.0 0.00 0.00 0.00 1 1027.1
20260903225528 0 270 1.0 2.0 0.00 0.00 0.00 1 1027.2
20260903224543 0 270 1.0 4.0 0.00 0.00 0.00 1 1027.1
20260903223518 0 270 3.0 4.0 0.00 0.00 0.00 1 1027.2
20260903222613 0 270 4.0 7.0 0.00 0.00 0.00 1 1027.1